Home > Weather > Montgomery > Past weeks

Flag for USA Weather for the Past 2 Weeks in Montgomery, Alabama, USA

Now
74 °F

Sunny.


Feels Like: 77 °F
Forecast: 48 / 76 °F
Wind: 10 mph from Northwest

Location: Maxwell Air Force Base / Montgomery

Current Time: May 6, 2016 at 5:47:34 PM

Latest Report: May 6, 2016 at 4:58 PM


Visibility: 10 mi

Pressure: 29.93 "Hg

Humidity: 32%

Dew Point: 42 °F

Location of MontgomeryLocation

Historic Weather in Montgomery — Graph

°F

Montgomery Temperature Yesterday

Maximum temperature yesterday: 72 °F (at 3:58 PM)
Minimum temperature yesterday: 55 °F (at 5:58 AM)
Average temperature yesterday: 63 °F

High & Low Weather Summary for the Past Weeks

 TemperatureHumidityPressure
High87 °F (Apr 29, 3:58 PM)100% (Apr 22, 8:03 AM)30.06 "Hg (Apr 22, 8:03 AM)
Low49 °F (May 6, 5:58 AM)31% (May 5, 3:58 PM)29.75 "Hg (May 4, 6:58 PM)
Average70 °F75%29.93 "Hg
* Reported Apr 21 4:58 PM — May 6 4:58 PM, Montgomery, Weather by CustomWeather, © 2016

Note: Actual official high and low records may vary slightly from our data, if they occured in-between our weather recording intervals... More about our weather records

Advertising

Montgomery Weather History for the Previous 24 Hours

Scroll right to see more
 ConditionsComfort  
Time TempWeatherWind HumidityBarometerVisibility
4:58 PM
Fri, May 6
74 °FSunny.10 mph32%29.93 "Hg10 mi
3:58 PM74 °FPassing clouds.15 mph33%29.95 "Hg10 mi
2:58 PM74 °FScattered clouds.17 mph35%29.96 "Hg10 mi
1:58 PM74 °FPassing clouds.18 mph35%29.98 "Hg10 mi
12:58 PM71 °FScattered clouds.13 mph40%29.98 "Hg10 mi
11:58 AM71 °FPassing clouds.13 mph42%30.00 "Hg10 mi
10:58 AM69 °FSunny.15 mph44%30.01 "Hg10 mi
9:58 AM65 °FMild.N/A55%30.01 "HgN/A
8:58 AM61 °FSunny.9 mph60%30.02 "Hg10 mi
7:58 AM56 °FSunny.5 mph69%30.02 "Hg10 mi
6:58 AM51 °FSunny.6 mph79%29.98 "Hg10 mi
5:58 AM49 °FClear.5 mph80%29.98 "Hg10 mi
4:58 AM49 °FClear.3 mph77%29.96 "Hg10 mi
3:58 AM49 °FClear.3 mph79%29.95 "Hg10 mi
2:58 AM52 °FClear.3 mph69%29.95 "Hg10 mi
1:58 AM53 °FClear.3 mph69%29.94 "Hg10 mi
12:58 AM56 °FClear.5 mph61%29.94 "Hg10 mi
11:58 PM
Thu, May 5
58 °FClear.13 mph59%29.93 "Hg10 mi
10:58 PM60 °FClear.7 mph54%29.91 "Hg10 mi
9:58 PM59 °FClear.6 mph57%29.88 "Hg10 mi
8:58 PM61 °FClear.5 mph50%29.87 "Hg10 mi
7:58 PM64 °FSunny.6 mph43%29.85 "Hg10 mi
6:58 PM69 °FPassing clouds.14 mph36%29.83 "Hg10 mi
5:58 PM71 °FPassing clouds.9 mph33%29.82 "Hg10 mi
Weather by CustomWeather, © 2016

See weather overviewHow to use our weather pages